TimeCST,TemperatureF,Dew PointF,Humidity,Sea Level PressureIn,VisibilityMPH,Wind Direction,Wind SpeedMPH,Gust SpeedMPH,PrecipitationIn,Events,Conditions,WindDirDegrees,DateUTC
12:53 AM,46.0,30.0,54,30.21,10.0,ESE,8.1,-,N/A,,Clear,110,2013-03-09 06:53:00
1:53 AM,46.0,30.0,54,30.18,10.0,ESE,8.1,-,N/A,,Clear,110,2013-03-09 07:53:00
2:53 AM,45.0,28.9,53,30.17,10.0,East,4.6,-,N/A,,Clear,100,2013-03-09 08:53:00
3:53 AM,45.0,30.0,56,30.16,10.0,ESE,6.9,-,N/A,,Clear,110,2013-03-09 09:53:00
4:53 AM,44.1,28.9,55,30.16,10.0,East,6.9,-,N/A,,Clear,100,2013-03-09 10:53:00
5:53 AM,43.0,30.0,60,30.16,10.0,SE,4.6,-,N/A,,Partly Cloudy,130,2013-03-09 11:53:00
6:53 AM,45.0,30.9,58,30.16,10.0,SE,6.9,-,N/A,,Overcast,140,2013-03-09 12:53:00
7:53 AM,46.0,30.9,56,30.16,10.0,SE,11.5,-,N/A,,Overcast,130,2013-03-09 13:53:00
8:53 AM,46.9,32.0,56,30.15,10.0,SE,13.8,-,N/A,,Overcast,140,2013-03-09 14:53:00
9:53 AM,50.0,33.1,52,30.14,10.0,SSE,11.5,-,N/A,,Mostly Cloudy,150,2013-03-09 15:53:00
10:53 AM,54.0,35.1,49,30.10,10.0,SSE,11.5,-,N/A,,Mostly Cloudy,150,2013-03-09 16:53:00
11:53 AM,61.0,36.0,39,30.08,10.0,SSE,11.5,-,N/A,,Clear,150,2013-03-09 17:53:00
12:53 PM,66.0,37.0,34,30.04,10.0,SSE,13.8,19.6,N/A,,Clear,160,2013-03-09 18:53:00
1:53 PM,66.9,37.9,34,30.00,10.0,South,19.6,24.2,N/A,,Clear,180,2013-03-09 19:53:00
2:53 PM,68.0,37.9,33,29.96,10.0,South,18.4,26.5,N/A,,Clear,190,2013-03-09 20:53:00
3:53 PM,68.0,37.0,32,29.96,10.0,South,18.4,-,N/A,,Clear,170,2013-03-09 21:53:00
4:53 PM,64.9,35.1,33,29.94,10.0,South,18.4,-,N/A,,Scattered Clouds,170,2013-03-09 22:53:00
5:53 PM,61.0,39.0,44,29.94,10.0,SSE,11.5,-,N/A,,Scattered Clouds,150,2013-03-09 23:53:00
6:53 PM,59.0,37.0,44,29.95,10.0,SSE,12.7,-,N/A,,Scattered Clouds,150,2013-03-10 00:53:00
7:53 PM,57.9,36.0,44,29.93,10.0,SSE,12.7,21.9,N/A,,Clear,150,2013-03-10 01:53:00
8:53 PM,57.0,36.0,45,29.92,10.0,SE,15.0,-,N/A,,Clear,140,2013-03-10 02:53:00
9:53 PM,59.0,35.1,41,29.92,10.0,SSE,15.0,23.0,N/A,,Scattered Clouds,150,2013-03-10 03:53:00
10:53 PM,57.0,36.0,45,29.92,10.0,SSE,11.5,-,N/A,,Overcast,150,2013-03-10 04:53:00
11:53 PM,55.9,36.0,47,29.90,10.0,SSE,11.5,-,N/A,,Overcast,150,2013-03-10 05:53:00